Location: *
(30.0216°S, 148.7744°W)
Time: 22:49:21
(UTC+00:00)

IGS 5A - Visible Passes

Search period start: 18 November 2025 00:00
Search period end: 28 November 2025 00:00
Orbit: 551 x 557 km, 97.4° (Epoch: 16 November)

Date Brightness Start Highest point End Pass type
(mag) Time Alt. Az. Time Alt. Az. Time Alt. Az.
18 Nov 6.6 14:18:30 10° ENE 14:21:09 17° ESE 14:23:48 10° SSE visible
19 Nov 6.7 14:15:36 10° ENE 14:18:03 16° ESE 14:20:30 10° SSE visible
20 Nov 6.8 14:12:43 10° ENE 14:14:56 15° ESE 14:17:10 10° SE visible
21 Nov 6.9 14:09:52 10° E 14:11:49 13° ESE 14:13:47 10° SE visible
22 Nov 7.0 14:07:04 10° E 14:08:41 12° ESE 14:10:20 10° SE visible
23 Nov 7.4 04:59:49 10° WSW 05:00:24 10° WSW 05:01:01 10° WSW visible
23 Nov 7.2 14:04:21 10° E 14:05:33 11° ESE 14:06:44 10° SE visible
24 Nov 7.3 14:02:03 10° ESE 14:02:24 10° ESE 14:02:44 10° ESE visible
